User: anonymous   Login
Location: Edinburgh
(55.9500°N, 3.1600°W)
Time: 13:50:02
(UTC+01:00)
Language:

ZACube-1 - Orbit

View from above orbital plane
View from above orbital plane
View from above satellite
View from above satellite

Ground track
Ground track

The orbit data is extracted from the following two-line orbital elements,

1 39417U 13066B   19115.18494009  .00000179  00000-0  28903-4 0  9995
2 39417  97.5659 131.7418 0058159 211.3842 148.3897 14.81088366292975
Epoch (UTC): 25 April 2019 04:26:18
Eccentricity: 0.0058159
inclination: 97.5659°
perigee height: 585 km
apogee height: 666 km
right ascension of ascending node: 131.7418°
argument of perigee: 211.3842°
revolutions per day: 14.81088366
mean anomaly at epoch: 148.3897°
orbit number at epoch: 29297

The dashed part of the orbit path shows where the satellite is in the earth's shadow,  

DLR